Temperature
28 29 30 31 31 31 31 31 31 31 31 31 31 31 30 29 29 28 27 26 25 25 24 23 22 21 21 21 21 21 20 20 20 20 20 20 19 19 19 19 19 19 19 18
29 29 31 31 31 30 31 31 31 31 31 31 31 31 31 30 29 28 28 27 26 25 24 23 22 22 21 21 21 21 21 20 20 20 20 20 19 19 19 19 19 19 19 18
30 31 31 30 30 30 31 31 31 31 31 31 31 31 30 30 29 28 28 27 27 26 25 24 23 22 21 21 21 21 21 21 21 20 20 20 19 19 19 19 19 19 19 18
30 31 30 30 30 31 31 31 31 31 31 31 31 30 31 30 30 29 28 27 27 26 25 24 23 22 22 21 21 21 21 21 21 21 20 20 20 19 19 19 19 19 19 18
30 30 30 30 31 31 31 31 31 31 31 31 31 31 31 31 30 30 29 28 27 26 26 25 24 23 22 22 21 21 21 21 21 21 20 20 20 19 19 19 19 19 19 18
31 31 31 31 31 31 31 30 30 31 31 30 31 30 31 31 30 30 29 28 27 26 25 24 24 23 22 22 21 21 21 21 21 21 20 20 20 20 19 19 19 19 18 18
29 30 31 31 30 30 30 30 30 29 30 30 30 30 30 31 30 30 29 28 27 26 25 24 23 23 22 22 21 21 21 21 21 21 21 20 20 20 20 19 19 19 18 18
29 29 30 31 31 30 30 31 30 29 30 31 30 30 31 30 29 29 28 28 26 26 25 24 23 23 22 22 21 21 21 21 21 20 20 20 20 19 19 19 19 19 18 18
30 30 31 31 31 31 30 31 32 31 31 30 31 31 31 30 29 29 28 27 27 26 25 24 23 23 22 21 21 21 21 21 20 20 20 20 20 19 19 19 19 18 18 18
31 29 30 30 30 30 31 31 31 30 29 29 30 30 31 29 29 29 29 28 27 25 24 24 23 22 22 22 21 21 21 21 20 20 20 19 19 19 19 19 18 18 18 18
31 30 30 30 29 30 30 30 30 30 30 29 29 30 31 30 30 29 29 27 26 25 24 23 22 22 22 21 21 21 20 20 20 20 20 19 19 19 19 19 18 18 18 18
30 30 30 30 30 30 31 31 30 29 29 30 30 30 30 30 30 29 28 26 25 24 24 23 22 21 21 21 21 20 20 20 20 20 19 19 19 19 19 18 18 18 18 18
29 29 28 29 29 29 29 30 30 31 30 30 30 30 29 29 28 27 26 25 24 23 23 22 22 21 21 20 20 20 20 20 19 19 19 19 19 19 18 18 18 18 18 17
28 29 29 29 29 30 29 29 30 30 30 30 30 30 29 28 28 27 25 24 23 22 22 22 21 20 20 20 20 20 20 19 19 19 19 19 19 18 18 18 18 18 17 17
29 29 29 29 30 30 30 29 29 29 30 30 30 29 29 28 27 26 25 24 23 22 21 21 20 20 19 19 19 19 19 19 19 19 19 19 19 18 18 18 17 17 17 17
28 28 28 28 29 29 29 29 29 29 29 29 29 29 28 27 26 25 24 23 22 21 21 20 20 19 19 19 19 19 19 19 19 19 18 18 18 18 18 17 17 17 17 16
28 27 27 28 28 28 28 29 29 29 29 29 29 28 27 27 26 25 23 23 22 21 21 20 19 19 19 19 19 19 19 19 18 18 18 18 18 17 17 17 17 17 17 16
26 26 27 28 27 26 28 28 28 28 28 28 28 27 26 26 24 23 23 22 21 21 20 20 19 19 19 19 18 18 18 18 18 17 17 17 17 17 17 17 16 16 16 16
26 26 26 27 27 27 27 27 27 27 27 27 27 26 25 24 24 23 22 21 20 20 20 19 19 19 19 18 18 18 18 18 17 17 17 17 17 16 16 16 16 16 16 16
25 25 26 26 26 26 27 27 26 26 26 26 26 25 25 24 25 24 21 20 20 19 19 18 18 18 18 18 18 17 17 17 17 17 16 16 16 16 16 16 16 16 15 15
24 24 25 25 25 27 25 25 25 25 25 24 24 24 23 23 24 22 20 19 19 18 18 18 18 18 17 17 17 17 16 16 16 16 16 16 16 15 15 15 15 15 15 15
24 25 24 25 25 25 23 24 24 24 22 22 22 22 21 21 20 19 19 18 18 18 17 17 17 17 17 16 16 16 16 16 16 16 16 15 15 15 15 15 15 15 14 14
24 24 25 24 24 22 21 22 21 21 21 21 21 20 20 20 19 18 18 17 17 17 17 17 16 16 16 16 16 16 16 15 15 15 15 15 15 15 15 15 14 14 14 14
22 22 22 22 22 21 20 20 20 20 20 20 19 19 19 19 18 18 17 17 16 16 16 16 16 16 15 15 15 15 15 15 15 15 15 15 15 15 14 14 14 14 14 13
22 21 22 22 21 20 19 19 19 19 19 19 18 18 18 18 17 17 16 16 16 15 15 15 15 15 15 15 15 15 14 14 14 14 14 14 14 14 13 13 13 13 13 13
22 21 21 22 21 21 20 19 18 18 18 18 18 17 17 17 17 16 16 16 15 15 15 15 15 15 14 14 14 14 14 14 14 14 14 13 13 13 13 13 13 13 13 13
Wind_Speed
8 9 9 6 6 6 5 6 4 2 2 6 7 6 7 9 10 10 9 9 10 9 9 10 10 9 9 8 8 8 7 7 6 5 4 4 3 2 2 1 1 1 1 1
9 11 8 6 6 7 8 7 5 3 2 5 6 6 6 9 10 9 10 10 10 10 10 10 11 10 10 10 9 8 8 7 7 5 4 3 2 2 2 1 1 2 1 2
13 6 5 7 8 9 9 8 5 4 3 6 6 7 6 7 8 9 9 9 9 9 10 11 11 11 11 11 10 9 8 8 7 6 5 4 3 3 3 2 2 2 2 2
11 8 7 9 9 9 8 5 6 6 7 4 5 5 5 7 8 10 10 9 9 9 10 11 12 12 12 11 10 10 9 8 7 7 6 6 4 3 3 2 2 3 3 3
10 9 10 10 8 8 6 3 6 7 8 7 7 7 4 7 8 9 10 10 9 9 10 11 11 12 11 11 10 9 9 8 7 7 7 6 5 4 3 3 3 3 3 3
10 7 8 8 6 7 5 6 6 8 8 9 6 7 4 4 6 6 8 9 8 8 8 9 10 9 10 10 10 10 9 8 8 8 7 7 6 5 4 3 3 3 3 3
12 11 9 8 9 10 10 10 7 8 8 6 4 7 4 1 2 4 6 7 8 8 8 9 10 10 9 10 10 9 10 9 8 8 8 7 7 6 6 5 4 3 3 3
12 11 11 10 11 9 12 13 9 7 7 5 5 6 2 1 2 3 5 6 7 8 8 9 9 9 9 9 9 9 9 8 8 8 8 7 7 6 5 5 4 3 3 2
10 9 9 9 9 10 11 12 11 10 10 9 6 5 4 3 4 5 6 6 7 7 7 7 7 8 8 8 8 8 8 8 8 8 7 7 7 6 4 4 5 4 3 3
9 9 9 9 9 9 10 10 8 10 8 9 8 8 5 5 5 6 7 7 7 7 7 7 7 7 7 7 7 7 7 7 7 7 7 6 6 6 5 5 4 4 3 3
12 11 9 10 11 12 10 11 10 10 10 10 9 4 1 3 4 5 6 6 6 7 7 7 7 6 7 7 7 6 6 6 6 6 6 5 5 6 6 5 5 5 4 4
11 10 10 10 8 8 11 12 12 11 10 10 11 5 3 1 3 4 4 5 5 5 6 6 6 6 6 6 6 6 5 5 5 5 5 6 5 5 6 6 6 5 5 5
8 9 10 10 11 10 10 11 13 12 11 11 12 5 3 2 2 3 4 5 5 5 5 6 6 5 5 5 4 5 5 5 5 5 6 5 5 5 5 5 5 5 5 5
6 11 12 11 7 9 10 11 12 13 12 12 12 8 2 2 3 3 3 4 5 5 5 5 5 5 4 4 4 4 4 4 5 5 5 5 5 5 4 5 5 5 5 5
7 11 11 9 7 8 10 11 12 14 14 14 10 8 5 3 3 3 4 4 5 5 5 4 4 4 4 4 4 5 4 4 5 5 5 4 4 4 4 5 5 5 5 5
7 9 9 10 10 10 11 12 12 13 13 12 10 8 2 2 3 4 4 4 4 4 4 4 3 3 3 4 4 5 5 5 5 5 5 4 4 4 4 5 5 5 5 4
7 8 10 12 10 10 14 12 12 12 11 11 11 6 4 5 4 4 4 4 4 4 4 4 4 3 4 4 5 5 5 5 5 5 4 4 4 4 4 4 4 5 5 4
8 9 9 10 9 14 7 3 6 8 8 8 6 4 5 5 5 4 3 3 3 3 3 3 3 3 3 4 4 4 4 5 5 5 4 4 5 4 4 4 4 4 4 4
9 9 9 11 14 13 8 5 6 8 8 7 7 6 5 4 5 5 2 2 2 2 2 2 2 2 2 3 4 4 4 4 4 4 4 4 4 4 4 5 5 4 4 4
7 9 11 11 13 14 6 4 3 5 8 4 5 6 6 6 6 3 3 3 3 3 3 2 2 3 2 2 3 4 3 3 3 3 3 4 4 4 4 4 4 4 4 5
9 9 13 14 13 9 1 3 5 8 2 3 3 4 5 4 1 4 4 4 4 4 4 4 3 3 2 2 2 2 2 2 2 3 3 3 4 4 4 3 4 4 4 4
9 9 11 11 14 9 3 4 3 1 3 3 2 2 3 3 4 5 4 4 5 5 5 4 4 3 3 2 2 2 1 1 1 2 3 3 3 4 3 3 4 4 4 5
7 5 5 6 4 3 2 1 1 1 2 2 2 3 4 4 5 5 4 4 4 4 4 4 4 4 4 3 2 1 1 1 1 2 2 3 3 3 3 4 4 4 4 4
4 2 4 4 2 2 2 1 1 1 1 1 2 2 3 4 5 5 4 4 4 4 4 4 4 3 3 3 2 2 1 1 1 2 2 3 3 3 3 3 4 3 4 4
3 3 5 5 2 3 3 2 1 1 2 2 3 3 3 4 4 4 4 4 4 3 3 3 3 2 2 2 2 2 2 1 0 1 2 3 3 2 2 3 2 3 3 2
5 5 6 4 2 3 2 1 2 2 3 3 3 3 3 3 4 4 4 4 3 3 3 2 2 2 2 2 2 2 2 1 1 1 1 2 2 2 2 2 2 0 2 2
Wind_Direction
197 221 224 226 240 270 264 260 254 226 216 231 238 236 206 198 204 203 198 196 197 199 191 188 190 190 189 189 189 191 192 186 190 193 197 191 189 192 188 197 180 206 234 207
203 224 230 245 239 243 249 253 243 213 200 248 250 245 218 203 208 208 205 202 201 197 191 190 193 195 196 193 194 193 193 191 194 190 196 199 200 200 199 187 162 216 214 228
222 216 209 229 228 233 239 248 254 253 214 223 256 233 200 195 205 206 210 210 205 202 198 193 195 198 200 199 197 197 195 192 194 192 193 194 192 206 192 186 178 199 209 213
229 227 221 229 229 236 235 235 250 243 244 233 243 260 184 186 198 204 206 204 204 202 201 198 196 198 201 200 197 194 193 193 190 193 201 204 206 210 210 204 179 177 196 207
217 222 225 231 230 238 246 235 238 241 249 257 234 260 206 187 207 209 206 203 204 203 202 198 196 197 198 194 191 188 189 191 190 195 199 205 213 214 206 195 181 196 185 201
231 223 230 234 227 226 211 206 214 230 241 245 241 256 250 202 217 202 196 195 199 194 191 190 190 189 191 190 189 187 186 190 190 196 201 207 213 216 211 202 196 202 198 199
219 219 214 219 216 202 212 224 226 227 229 239 204 246 263 179 205 209 194 189 189 184 181 181 183 184 187 189 190 188 187 189 190 195 201 206 213 211 209 214 210 222 221 205
215 213 207 212 224 221 218 235 243 252 254 246 200 240 240 139 184 196 189 181 179 180 177 179 180 182 182 183 186 185 187 189 189 194 199 205 209 213 211 212 226 215 231 232
224 218 193 207 222 230 222 232 251 263 266 265 238 235 215 180 191 189 179 174 175 174 169 171 172 174 174 178 183 186 186 187 191 194 197 202 207 216 219 218 222 222 218 219
237 232 210 200 208 218 240 239 236 244 253 261 250 239 238 200 205 187 182 180 171 165 163 160 161 165 167 172 177 182 184 188 194 198 203 200 205 212 220 229 229 233 232 230
237 233 211 203 216 220 209 220 234 247 255 263 265 254 185 214 203 195 187 179 168 163 160 156 155 156 159 166 170 172 173 180 188 196 201 204 205 210 213 216 218 219 222 221
221 237 232 220 213 234 231 232 230 238 243 252 269 271 98 182 197 194 185 169 160 158 154 152 150 151 160 165 167 167 173 177 186 195 195 200 200 206 212 209 208 209 209 214
203 230 229 217 203 205 221 229 233 246 252 251 257 255 123 131 173 176 172 160 148 148 150 152 153 156 161 163 165 168 178 181 189 193 191 192 198 203 210 210 207 205 201 204
225 234 239 244 233 208 215 222 229 238 247 251 254 262 235 210 192 173 163 157 153 149 150 157 159 162 164 168 169 175 184 186 188 187 186 195 202 205 206 208 209 205 201 202
226 236 238 255 255 236 233 229 227 236 250 262 264 260 255 233 205 182 171 162 160 157 158 160 163 168 174 179 183 184 187 191 195 190 189 196 203 205 205 207 210 206 210 212
228 239 236 238 236 235 238 236 235 237 244 248 254 253 248 176 176 180 180 173 170 169 171 171 170 173 185 193 194 192 193 197 194 193 198 192 193 194 199 204 208 205 207 214
221 228 235 243 226 236 241 236 237 237 241 244 248 244 205 191 188 193 186 182 183 181 177 177 178 186 197 203 200 199 199 197 195 198 200 191 190 186 193 203 201 205 207 209
227 231 237 244 229 242 248 225 237 242 245 245 238 220 213 204 190 178 180 182 177 183 184 191 189 184 190 192 193 199 191 191 199 202 201 197 195 192 190 196 204 209 209 211
233 226 238 241 240 244 227 208 220 234 241 235 217 205 197 180 180 170 147 165 167 165 168 181 175 161 167 168 174 181 182 183 193 200 203 203 200 202 202 203 208 210 209 211
212 221 235 236 246 251 239 164 196 235 233 204 205 200 190 189 218 180 145 139 129 119 112 108 109 115 114 127 163 173 179 183 196 206 209 207 204 208 209 208 210 208 210 212
206 215 230 237 244 246 68 145 191 228 239 125 175 188 186 198 253 121 124 117 112 109 107 106 102 104 104 118 144 166 177 195 205 206 203 195 198 205 205 207 212 213 214 216
227 225 226 236 243 238 89 164 217 4 58 113 134 147 153 133 114 120 121 116 110 108 103 100 99 87 79 93 122 130 169 244 222 207 205 196 200 210 192 200 210 214 218 217
235 256 254 249 255 63 123 156 53 48 103 116 129 134 142 140 133 127 121 114 106 101 97 93 93 86 73 66 75 78 16 309 250 224 213 206 209 215 209 203 204 205 206 222
209 252 249 244 204 149 149 134 102 101 136 131 136 146 153 146 136 127 120 113 104 98 94 95 95 89 80 69 51 28 2 330 268 246 231 216 208 213 214 224 214 214 219 227
264 222 231 231 210 195 202 188 154 119 121 124 130 139 144 146 141 133 129 123 115 106 99 96 95 87 72 65 47 21 9 352 312 261 253 248 230 219 226 234 252 243 244 248
235 240 247 254 210 228 207 174 183 163 146 140 133 127 133 143 142 138 133 131 132 124 113 106 99 82 66 53 40 14 359 352 332 312 296 273 256 236 234 235 257 247 244 183
Height
1506 1505 1501 1498 1498 1499 1499 1500 1500 1499 1497 1499 1501 1501 1502 1507 1510 1512 1515 1518 1521 1524 1527 1529 1531 1533 1534 1535 1536 1537 1539 1540 1541 1542 1544 1544 1545 1545 1546 1546 1546 1546 1546 1546
1503 1501 1497 1497 1498 1499 1499 1500 1499 1497 1497 1499 1498 1498 1497 1502 1506 1509 1512 1515 1518 1521 1524 1527 1529 1530 1532 1533 1534 1535 1537 1538 1540 1541 1542 1543 1544 1545 1545 1545 1545 1545 1545 1545
1497 1494 1496 1498 1498 1500 1498 1498 1497 1498 1497 1497 1499 1498 1497 1499 1503 1507 1510 1512 1515 1518 1520 1523 1526 1527 1529 1531 1532 1534 1535 1537 1538 1540 1541 1542 1543 1544 1544 1544 1544 1544 1544 1544
1493 1492 1496 1496 1496 1495 1498 1493 1495 1497 1499 1497 1499 1505 1495 1495 1499 1502 1505 1508 1511 1514 1517 1520 1522 1524 1526 1528 1530 1532 1533 1535 1536 1538 1539 1540 1542 1542 1543 1543 1543 1543 1543 1543
1491 1491 1494 1495 1492 1493 1493 1493 1494 1495 1497 1498 1496 1501 1493 1491 1496 1497 1500 1504 1507 1511 1513 1516 1519 1521 1524 1526 1528 1530 1531 1533 1534 1536 1537 1538 1540 1541 1542 1542 1542 1542 1542 1542
1487 1489 1490 1490 1490 1492 1492 1495 1496 1494 1494 1507 1498 1502 1498 1488 1491 1492 1496 1501 1505 1507 1510 1513 1516 1519 1522 1524 1526 1528 1529 1531 1532 1534 1535 1536 1537 1539 1540 1540 1541 1541 1541 1541
1490 1487 1487 1489 1490 1491 1493 1498 1506 1509 1507 1504 1493 1498 1495 1486 1488 1491 1494 1498 1502 1505 1508 1510 1513 1516 1519 1521 1524 1526 1527 1528 1530 1531 1533 1534 1535 1536 1537 1538 1539 1540 1540 1540
1492 1492 1484 1485 1487 1487 1489 1490 1504 1514 1510 1497 1494 1496 1487 1485 1489 1491 1494 1497 1500 1503 1505 1508 1511 1513 1516 1519 1521 1523 1524 1525 1527 1529 1530 1532 1533 1535 1536 1536 1537 1537 1538 1538
1482 1486 1478 1481 1482 1483 1488 1487 1481 1490 1493 1497 1491 1487 1483 1484 1488 1490 1492 1495 1498 1501 1504 1506 1509 1512 1514 1516 1518 1520 1522 1523 1525 1527 1528 1529 1531 1532 1533 1534 1534 1535 1535 1536
1475 1485 1478 1480 1482 1483 1482 1480 1485 1491 1507 1508 1496 1490 1485 1485 1485 1487 1490 1493 1497 1500 1503 1505 1508 1510 1512 1514 1516 1518 1520 1521 1523 1524 1526 1528 1528 1529 1530 1531 1532 1533 1533 1534
1473 1481 1480 1480 1482 1481 1485 1486 1485 1485 1487 1501 1503 1491 1475 1479 1482 1485 1488 1492 1496 1499 1502 1504 1506 1508 1510 1512 1514 1516 1517 1519 1520 1522 1523 1525 1526 1526 1527 1528 1529 1529 1530 1530
1474 1475 1479 1476 1473 1475 1476 1477 1481 1491 1493 1489 1492 1488 1474 1477 1480 1484 1488 1492 1496 1498 1501 1503 1505 1507 1509 1511 1513 1513 1515 1516 1517 1519 1520 1522 1522 1523 1524 1525 1525 1525 1526 1527
1474 1476 1486 1484 1481 1478 1477 1476 1475 1476 1481 1486 1490 1486 1476 1479 1482 1485 1488 1492 1495 1498 1500 1502 1504 1506 1508 1509 1510 1511 1513 1513 1515 1516 1518 1518 1519 1520 1521 1521 1522 1523 1523 1524
1475 1471 1477 1482 1475 1470 1475 1476 1475 1477 1481 1482 1480 1478 1476 1479 1482 1486 1489 1492 1495 1497 1499 1500 1502 1504 1505 1506 1508 1509 1510 1512 1513 1514 1514 1516 1516 1517 1518 1518 1519 1520 1520 1521
1472 1472 1470 1468 1466 1467 1470 1472 1473 1476 1474 1477 1474 1474 1475 1479 1482 1486 1489 1492 1494 1496 1497 1499 1500 1502 1503 1504 1505 1506 1507 1508 1510 1510 1512 1512 1513 1514 1515 1515 1516 1517 1517 1518
1470 1470 1471 1473 1468 1468 1471 1469 1470 1471 1471 1471 1473 1475 1475 1479 1483 1486 1488 1491 1493 1494 1496 1498 1499 1499 1500 1501 1501 1503 1504 1505 1506 1507 1508 1509 1510 1511 1511 1512 1513 1513 1514 1515
1469 1471 1475 1473 1468 1471 1475 1467 1467 1467 1466 1469 1471 1473 1475 1479 1482 1485 1488 1490 1491 1493 1495 1496 1496 1497 1498 1498 1499 1500 1501 1502 1503 1504 1505 1506 1507 1508 1508 1509 1510 1510 1511 1511
1471 1472 1470 1470 1476 1487 1468 1462 1464 1466 1467 1467 1469 1472 1475 1478 1483 1486 1488 1489 1490 1491 1493 1494 1495 1495 1496 1497 1497 1498 1499 1500 1501 1502 1502 1503 1504 1504 1505 1505 1506 1507 1507 1508
1468 1471 1471 1471 1474 1470 1465 1464 1466 1468 1469 1467 1469 1473 1476 1479 1482 1484 1487 1489 1490 1490 1491 1492 1493 1494 1494 1495 1495 1496 1497 1497 1498 1499 1499 1500 1501 1501 1502 1502 1503 1504 1504 1505
1468 1468 1470 1470 1476 1476 1463 1462 1466 1469 1471 1468 1471 1473 1475 1478 1478 1481 1486 1487 1488 1489 1490 1490 1491 1492 1492 1492 1493 1494 1494 1495 1495 1496 1497 1497 1498 1498 1499 1499 1500 1501 1501 1502
1468 1470 1469 1468 1470 1462 1463 1465 1468 1474 1471 1472 1472 1474 1476 1477 1479 1483 1485 1486 1487 1488 1489 1489 1489 1490 1490 1490 1491 1492 1492 1492 1493 1494 1494 1495 1495 1495 1496 1497 1497 1497 1498 1498
1464 1465 1468 1466 1470 1468 1467 1467 1468 1470 1472 1473 1474 1476 1477 1479 1481 1482 1484 1485 1486 1487 1487 1488 1489 1489 1489 1489 1490 1490 1490 1490 1491 1491 1491 1492 1492 1493 1493 1493 1494 1494 1494 1495
1462 1462 1460 1462 1466 1469 1469 1470 1472 1473 1474 1475 1475 1477 1478 1479 1481 1483 1484 1485 1486 1487 1487 1487 1488 1488 1488 1488 1488 1488 1488 1488 1488 1488 1488 1488 1489 1490 1490 1490 1490 1490 1490 1492
1463 1466 1465 1465 1465 1469 1471 1472 1473 1474 1475 1476 1476 1477 1478 1480 1481 1483 1484 1486 1486 1486 1486 1486 1487 1487 1487 1487 1487 1487 1487 1486 1486 1485 1485 1486 1486 1486 1487 1487 1488 1488 1488 1488
1464 1466 1464 1466 1468 1471 1472 1473 1473 1474 1475 1476 1477 1478 1479 1480 1481 1483 1484 1486 1486 1486 1486 1486 1487 1487 1487 1487 1486 1486 1485 1484 1483 1483 1483 1484 1484 1484 1484 1484 1484 1485 1485 1485
1465 1466 1465 1464 1467 1469 1471 1472 1473 1474 1474 1475 1476 1478 1479 1480 1481 1482 1483 1485 1486 1486 1486 1486 1486 1487 1486 1485 1485 1485 1484 1483 1482 1481 1481 1482 1482 1481 1481 1481 1482 1481 1482 1481